• In Österreich
  • Länderverzeichnis
  • Für 7 Tage
  • Wassertemperatur
  • Satellitenkarten
  • Wetterkarte
  • News
  • Widgets
  • user-avatar
    Anmelden

    Stündliche Wetter Kavkiv Yar

    Heute, 18 September, Dienstag

    Zeit Temperatur Niederschläge Wind Luftdruck Luftfeuchtigkeit
    00:00 +15°C° 0 mm 1 m/S 746 mmHg 61%
    01:00 +14°C° 0 mm 1 m/S 746 mmHg 62%
    02:00 +14°C° 0 mm 1 m/S 745 mmHg 63%
    03:00 +14°C° 0 mm 1 m/S 745 mmHg 63%
    04:00 +13°C° 0 mm 1 m/S 745 mmHg 64%
    05:00 +13°C° 0 mm 1 m/S 745 mmHg 65%
    06:00 +15°C° 0 mm 1 m/S 745 mmHg 62%
    07:00 +16°C° 0 mm 1 m/S 746 mmHg 59%
    08:00 +17°C° 0 mm 2 m/S 746 mmHg 55%
    09:00 +19°C° 0 mm 2 m/S 746 mmHg 51%
    10:00 +20°C° 0 mm 2 m/S 746 mmHg 47%
    11:00 +23°C° 0 mm 2 m/S 746 mmHg 43%
    12:00 +23°C° 0 mm 2 m/S 746 mmHg 42%
    13:00 +24°C° 0 mm 2 m/S 746 mmHg 40%
    14:00 +25°C° 0 mm 1 m/S 746 mmHg 38%
    15:00 +25°C° 0 mm 1 m/S 745 mmHg 40%
    16:00 +25°C° 0 mm 1 m/S 745 mmHg 43%
    17:00 +24°C° 0 mm 1 m/S 745 mmHg 45%
    18:00 +23°C° 0 mm 1 m/S 745 mmHg 48%
    19:00 +21°C° 0 mm 1 m/S 745 mmHg 51%
    20:00 +19°C° 0 mm 1 m/S 745 mmHg 54%
    21:00 +19°C° 0 mm 1 m/S 745 mmHg 55%
    22:00 +19°C° 0 mm 1 m/S 745 mmHg 56%
    23:00 +18°C° 0 mm 1 m/S 745 mmHg 58%

    Morgen, 19 September, Mittwoch

    Zeit Temperatur Niederschläge Wind Luftdruck Luftfeuchtigkeit
    00:00 +18°C° 0 mm 1 m/S 745 mmHg 59%
    01:00 +16°C° 0 mm 1 m/S 745 mmHg 61%
    02:00 +16°C° 0 mm 1 m/S 745 mmHg 62%
    03:00 +16°C° 0 mm 1 m/S 745 mmHg 64%
    04:00 +15°C° 0 mm 1 m/S 745 mmHg 65%
    05:00 +15°C° 0 mm 1 m/S 745 mmHg 67%
    06:00 +16°C° 0 mm 1 m/S 745 mmHg 64%
    07:00 +19°C° 0 mm 1 m/S 746 mmHg 60%
    08:00 +20°C° 0 mm 1 m/S 746 mmHg 57%
    09:00 +21°C° 0 mm 2 m/S 746 mmHg 52%
    10:00 +23°C° 0 mm 2 m/S 746 mmHg 47%
    11:00 +25°C° 0 mm 3 m/S 746 mmHg 42%
    12:00 +26°C° 0 mm 3 m/S 746 mmHg 40%
    13:00 +26°C° 0 mm 3 m/S 745 mmHg 38%
    14:00 +27°C° 0 mm 3 m/S 745 mmHg 36%
    15:00 +27°C° 0 mm 3 m/S 745 mmHg 39%
    16:00 +26°C° 0 mm 2 m/S 745 mmHg 41%
    17:00 +26°C° 0 mm 2 m/S 744 mmHg 43%
    18:00 +24°C° 0 mm 2 m/S 745 mmHg 46%
    19:00 +22°C° 0 mm 1 m/S 745 mmHg 48%
    20:00 +21°C° 0 mm 1 m/S 745 mmHg 51%
    21:00 +20°C° 0 mm 1 m/S 745 mmHg 52%
    22:00 +20°C° 0 mm 1 m/S 745 mmHg 53%
    23:00 +19°C° 0 mm 1 m/S 745 mmHg 54%

    übermorgen, 20 September, Donnerstag

    Zeit Temperatur Niederschläge Wind Luftdruck Luftfeuchtigkeit
    00:00 +19°C° 0 mm 1 m/S 745 mmHg 55%
    01:00 +18°C° 0 mm 1 m/S 745 mmHg 55%
    02:00 +18°C° 0 mm 1 m/S 745 mmHg 56%
    03:00 +18°C° 0 mm 1 m/S 745 mmHg 57%
    04:00 +16°C° 0 mm 1 m/S 745 mmHg 57%
    05:00 +16°C° 0 mm 1 m/S 744 mmHg 58%
    06:00 +18°C° 0 mm 1 m/S 745 mmHg 55%
    07:00 +19°C° 0 mm 1 m/S 745 mmHg 52%
    08:00 +21°C° 0 mm 1 m/S 745 mmHg 49%
    09:00 +22°C° 0 mm 1 m/S 745 mmHg 45%
    10:00 +24°C° 0 mm 2 m/S 745 mmHg 40%
    11:00 +26°C° 0 mm 2 m/S 745 mmHg 36%
    12:00 +27°C° 0 mm 2 m/S 745 mmHg 35%
    13:00 +27°C° 0 mm 2 m/S 744 mmHg 33%
    14:00 +28°C° 0 mm 2 m/S 744 mmHg 32%
    15:00 +27°C° 0 mm 1 m/S 744 mmHg 34%
    16:00 +27°C° 0 mm 1 m/S 744 mmHg 37%
    17:00 +27°C° 0 mm 1 m/S 744 mmHg 39%
    18:00 +25°C° 0 mm 1 m/S 744 mmHg 42%
    19:00 +23°C° 0 mm 1 m/S 743 mmHg 44%
    20:00 +21°C° 0 mm 1 m/S 743 mmHg 46%
    21:00 +21°C° 0 mm 1 m/S 743 mmHg 47%
    22:00 +20°C° 0 mm 1 m/S 743 mmHg 49%
    23:00 +18°C° 0 mm 0 m/S 743 mmHg 50%

    21 September, Freitag

    Zeit Temperatur Niederschläge Wind Luftdruck Luftfeuchtigkeit
    00:00 +17°C° 0 mm 0 m/S 743 mmHg 51%
    01:00 +17°C° 0 mm 0 m/S 743 mmHg 52%
    02:00 +17°C° 0 mm 0 m/S 743 mmHg 54%
    03:00 +18°C° 0 mm 1 m/S 743 mmHg 55%
    04:00 +18°C° 0 mm 1 m/S 743 mmHg 56%
    05:00 +18°C° 0 mm 1 m/S 743 mmHg 57%
    06:00 +19°C° 0 mm 1 m/S 743 mmHg 55%
    07:00 +20°C° 0 mm 1 m/S 744 mmHg 53%
    08:00 +21°C° 0 mm 1 m/S 744 mmHg 51%
    09:00 +23°C° 0 mm 1 m/S 744 mmHg 46%
    10:00 +25°C° 0 mm 2 m/S 744 mmHg 42%
    11:00 +27°C° 0 mm 2 m/S 744 mmHg 37%
    12:00 +27°C° 0 mm 2 m/S 743 mmHg 35%
    13:00 +28°C° 0 mm 2 m/S 743 mmHg 33%
    14:00 +29°C° 0 mm 2 m/S 743 mmHg 31%
    15:00 +28°C° 0 mm 2 m/S 743 mmHg 34%
    16:00 +27°C° 0 mm 2 m/S 742 mmHg 36%
    17:00 +27°C° 0 mm 2 m/S 742 mmHg 39%
    18:00 +25°C° 0 mm 2 m/S 742 mmHg 41%
    19:00 +24°C° 0 mm 2 m/S 742 mmHg 43%
    20:00 +21°C° 0 mm 2 m/S 742 mmHg 45%
    21:00 +21°C° 0 mm 2 m/S 742 mmHg 47%
    22:00 +20°C° 0 mm 2 m/S 741 mmHg 48%
    23:00 +19°C° 0 mm 2 m/S 741 mmHg 49%

    22 September, Samstag

    Zeit Temperatur Niederschläge Wind Luftdruck Luftfeuchtigkeit
    00:00 +19°C° 0 mm 2 m/S 741 mmHg 50%
    01:00 +19°C° 0 mm 2 m/S 741 mmHg 51%
    02:00 +18°C° 0 mm 2 m/S 741 mmHg 52%
    03:00 +18°C° 0 mm 2 m/S 740 mmHg 53%
    04:00 +17°C° 0 mm 2 m/S 740 mmHg 54%
    05:00 +17°C° 0 mm 2 m/S 740 mmHg 55%
    06:00 +18°C° 0 mm 2 m/S 740 mmHg 53%
    07:00 +19°C° 0 mm 3 m/S 740 mmHg 51%
    08:00 +20°C° 0 mm 3 m/S 740 mmHg 50%
    09:00 +22°C° 0 mm 4 m/S 740 mmHg 45%
    10:00 +25°C° 0 mm 4 m/S 740 mmHg 40%
    11:00 +27°C° 0 mm 5 m/S 740 mmHg 35%
    12:00 +27°C° 0 mm 5 m/S 739 mmHg 33%
    13:00 +28°C° 0 mm 5 m/S 739 mmHg 31%
    14:00 +29°C° 0 mm 5 m/S 739 mmHg 30%
    15:00 +28°C° 0 mm 4 m/S 738 mmHg 32%
    16:00 +27°C° 0 mm 3 m/S 738 mmHg 35%
    17:00 +27°C° 0 mm 3 m/S 737 mmHg 38%
    18:00 +25°C° 0 mm 3 m/S 737 mmHg 40%
    19:00 +24°C° 0 mm 3 m/S 737 mmHg 42%
    20:00 +21°C° 0 mm 3 m/S 738 mmHg 45%
    21:00 +20°C° 0 mm 5 m/S 738 mmHg 49%
    22:00 +17°C° 0 mm 6 m/S 738 mmHg 53%
    23:00 +16°C° 0 mm 7 m/S 739 mmHg 57%

    23 September, Sonntag

    Zeit Temperatur Niederschläge Wind Luftdruck Luftfeuchtigkeit
    00:00 +13°C° 0.5 mm 8 m/S 739 mmHg 64%
    01:00 +11°C° 0.5 mm 8 m/S 739 mmHg 71%
    02:00 +8°C° 0.5 mm 9 m/S 740 mmHg 79%
    03:00 +7°C° 0.2 mm 8 m/S 740 mmHg 79%
    04:00 +8°C° 0.2 mm 7 m/S 741 mmHg 79%
    05:00 +8°C° 0.2 mm 7 m/S 741 mmHg 79%
    06:00 +8°C° 0 mm 6 m/S 741 mmHg 76%
    07:00 +9°C° 0 mm 6 m/S 741 mmHg 73%
    08:00 +10°C° 0 mm 6 m/S 742 mmHg 70%
    09:00 +11°C° 0 mm 6 m/S 742 mmHg 63%
    10:00 +14°C° 0 mm 6 m/S 742 mmHg 57%
    11:00 +15°C° 0 mm 6 m/S 742 mmHg 50%
    12:00 +16°C° 0 mm 6 m/S 742 mmHg 47%
    13:00 +16°C° 0 mm 6 m/S 742 mmHg 44%
    14:00 +17°C° 0 mm 6 m/S 741 mmHg 41%
    15:00 +17°C° 0 mm 6 m/S 741 mmHg 42%
    16:00 +16°C° 0 mm 5 m/S 741 mmHg 42%
    17:00 +17°C° 0 mm 4 m/S 741 mmHg 43%
    18:00 +14°C° 0 mm 3 m/S 741 mmHg 47%
    19:00 +13°C° 0 mm 3 m/S 741 mmHg 52%
    20:00 +13°C° 0 mm 2 m/S 741 mmHg 56%
    21:00 +12°C° 0 mm 1 m/S 741 mmHg 58%
    22:00 +12°C° 0 mm 1 m/S 741 mmHg 59%
    23:00 +10°C° 0 mm 0 m/S 741 mmHg 61%
    Mehr zeigen